SCP
0 0 0 0 0 0 0 0 0 0 0 0 0 0 0 0 0 0 0 0 0 0 0 1 1 1 1 1 1 1 1 1 1 1 1 1 1 1 1 1 1 1 1 1 0 0 0 0 0
0 0 0 0 0 0 0 0 0 0 0 0 0 0 0 0 0 0 0 0 0 0 0 1 1 1 1 1 1 1 1 1 1 1 1 1 1 1 1 1 1 1 1 1 1 0 0 0 0
0 0 0 0 0 0 0 0 -0 -0 -0 -0 0 0 0 0 0 0 0 0 0 0 0 0 1 1 1 1 1 1 1 1 1 1 1 1 1 1 1 1 1 1 1 1 1 1 0 0 0
0 0 0 0 0 0 0 0 -0 -0 -0 -0 0 0 0 0 0 0 0 0 0 0 0 0 1 1 1 1 1 1 1 1 1 1 1 1 1 1 1 1 1 1 1 1 1 1 0 0 0
0 0 0 0 0 0 0 0 -0 -0 -0 -0 0 0 0 0 0 0 0 0 0 0 0 0 1 1 1 1 1 1 1 1 1 1 1 1 1 1 1 1 1 1 1 1 1 0 0 0 0
0 0 0 0 0 0 0 0 -0 -0 -0 -0 0 0 0 0 0 0 0 0 0 0 0 0 1 1 1 1 1 1 1 1 1 1 1 1 1 1 1 1 1 1 1 1 1 0 0 0 0
0 0 0 0 0 0 0 0 -0 -0 -0 0 0 0 0 0 0 0 0 0 0 0 0 0 0 1 1 1 1 1 1 1 1 1 1 1 1 1 1 1 1 1 1 1 1 1 0 0 0
0 0 0 0 0 0 0 0 -0 0 0 0 0 0 0 0 0 0 0 0 0 0 0 0 0 0 0 0 1 1 1 1 1 1 1 1 1 0 1 1 1 1 1 1 1 1 0 0 0
0 0 0 0 0 0 0 0 0 0 0 0 0 -0 -0 0 0 0 0 0 0 0 0 0 0 0 0 0 0 0 1 1 1 0 0 0 0 0 0 0 0 1 1 1 1 1 0 0 0
0 0 0 0 0 0 0 0 0 0 0 0 0 0 -0 0 0 0 0 0 0 0 0 0 0 0 0 0 0 0 0 0 0 0 0 0 0 0 0 0 0 0 0 1 1 0 0 0 0
0 0 0 0 0 0 -0 -0 -0 0 0 0 0 0 -0 0 0 0 0 0 0 0 0 0 0 0 0 0 0 0 0 0 0 0 0 0 0 0 0 0 0 0 0 0 0 0 0 0 0
0 0 0 0 0 0 -0 -0 -0 0 0 0 0 0 0 0 0 0 0 0 0 0 0 0 0 0 0 0 0 0 0 0 0 0 0 0 0 0 0 0 0 0 0 0 0 0 0 0 0
0 0 0 0 0 0 -0 -0 -0 0 0 0 0 0 0 0 0 0 0 0 0 0 0 0 0 0 0 0 0 0 0 0 0 0 0 0 0 0 0 0 0 0 0 0 0 0 0 0 0
0 0 0 0 0 0 0 -0 0 0 0 0 0 0 0 0 0 0 0 0 0 0 0 0 0 0 0 0 0 0 0 0 0 0 0 0 0 0 0 0 0 0 0 0 0 0 0 0 0
0 0 0 0 0 0 -0 0 -0 -0 0 0 0 0 0 0 0 0 0 0 0 0 0 0 0 0 0 0 0 0 0 0 0 0 0 0 0 0 0 0 0 0 0 0 0 0 0 0 0
0 0 0 0 0 0 0 0 -0 -0 0 0 0 0 0 0 0 0 0 0 0 0 0 0 0 0 0 0 0 0 0 0 0 0 0 0 0 0 0 0 0 0 0 0 0 0 0 0 0
0 0 0 0 0 0 0 0 -0 -0 0 0 0 0 0 0 0 0 0 0 0 0 0 0 0 0 0 0 0 0 0 0 0 0 0 0 0 0 0 0 0 0 0 0 0 0 0 0 0
0 0 0 0 0 0 0 0 -0 0 0 0 0 0 0 0 0 0 0 0 0 0 0 0 0 0 0 0 0 0 0 0 0 0 0 0 0 0 0 0 0 0 0 0 0 0 0 0 0
0 0 0 0 0 0 0 0 -0 0 0 0 0 0 0 0 0 0 0 0 0 0 0 0 0 0 0 0 0 0 0 0 0 0 0 0 0 0 0 0 0 0 0 0 0 0 0 0 0
0 0 0 0 0 0 0 0 0 0 0 0 0 0 0 0 0 0 0 0 0 0 0 0 0 0 0 0 0 0 0 0 0 0 0 0 0 0 0 0 0 0 0 0 0 0 0 0 0
0 0 0 0 0 0 0 0 -0 0 0 0 0 0 0 0 0 0 0 0 0 0 0 0 0 0 0 0 0 0 0 0 0 0 0 0 0 0 0 0 0 0 0 0 0 0 0 0 0
0 0 0 0 0 0 0 0 0 -0 0 0 0 0 0 0 0 0 0 0 0 0 0 0 0 0 0 0 0 0 0 0 0 0 0 0 0 0 0 0 0 0 0 0 0 0 0 0 0
0 0 -0 -0 0 0 0 0 0 0 0 0 0 0 0 0 0 0 0 0 0 0 0 0 0 0 0 0 0 0 0 0 0 0 0 0 0 0 0 0 0 0 0 0 0 0 0 0 0
0 0 -0 -0 -0 0 0 0 0 0 0 0 0 0 0 0 0 0 0 0 0 0 0 0 0 0 0 0 0 0 0 0 0 0 0 0 0 0 0 0 0 0 0 0 0 0 0 0 0
0 0 -0 -0 -0 0 0 0 0 0 0 0 0 0 0 0 0 0 0 0 0 0 0 0 0 0 0 0 0 0 0 0 0 0 0 0 0 0 0 0 0 0 0 0 0 0 0 0 0
0 0 0 0 0 0 0 0 0 0 0 0 0 0 0 0 0 0 0 0 0 0 0 0 0 0 0 0 0 0 0 0 0 0 0 0 0 0 0 0 0 0 0 0 -0 -0 0 0 0
0 0 0 0 0 0 0 0 0 0 0 0 0 0 0 0 0 0 0 0 0 0 0 0 0 0 0 0 0 0 0 0 0 0 0 0 0 0 0 0 0 0 0 0 -0 -0 -0 0 0
0 0 0 0 0 0 0 0 0 0 0 0 0 0 0 0 0 0 0 0 0 0 0 0 0 0 0 0 0 0 0 0 0 0 0 0 0 0 0 0 0 0 0 0 -0 -0 -0 -0 0
0 0 0 0 0 0 0 0 0 0 0 0 0 0 0 0 0 0 0 0 0 0 0 0 0 0 0 0 0 0 0 0 0 0 0 0 0 0 0 0 0 0 0 0 -0 -0 -0 -0 0
0 0 0 0 0 0 0 0 0 0 0 0 0 0 0 0 0 0 0 0 0 0 0 0 0 0 0 0 0 0 0 0 0 0 0 0 0 0 0 0 0 0 0 0 -0 -0 -0 0 0
Wind_Speed
7 3 2 4 5 3 4 5 3 2 3 2 2 2 2 2 3 3 3 4 6 3 2 1 4 7 10 11 12 13 13 13 13 13 14 15 15 16 16 16 15 15 15 15 14 15 15 15 15
2 2 4 5 4 2 5 4 4 3 4 5 3 1 1 2 1 2 4 6 5 3 2 2 0 3 8 10 11 12 13 13 13 14 14 14 15 15 15 16 15 15 14 14 14 14 14 14 15
2 3 4 4 3 6 3 1 3 4 4 4 4 3 1 2 3 2 4 5 3 3 3 3 1 1 4 8 9 11 12 13 13 14 14 14 15 15 15 15 15 15 14 14 14 14 14 14 14
3 4 4 2 6 5 3 2 3 5 5 4 3 4 3 2 2 3 5 3 3 3 3 3 2 1 2 5 7 8 10 12 13 13 13 14 15 14 14 14 14 14 14 14 15 14 14 14 14
4 4 2 2 5 4 3 3 3 3 4 5 3 3 4 2 2 3 4 4 3 3 3 4 4 1 1 3 6 7 8 9 11 12 13 14 14 14 14 13 14 14 15 15 15 15 14 14 14
4 4 2 4 5 3 2 3 2 3 4 4 3 4 5 2 5 6 5 4 3 3 3 3 4 4 2 1 4 6 6 7 8 10 12 13 13 14 14 14 14 14 15 16 16 15 15 14 14
4 3 4 3 3 3 2 2 0 2 5 5 2 3 6 4 5 5 4 3 3 3 3 3 2 2 1 1 2 4 5 6 7 8 9 10 11 12 14 14 14 14 15 16 16 16 15 15 14
4 4 2 3 3 4 2 3 1 2 6 4 1 3 5 7 7 6 5 3 3 3 3 3 3 2 1 1 1 2 4 5 5 6 6 7 9 11 12 12 13 14 15 15 16 16 15 14 14
3 3 3 4 4 3 2 3 4 3 4 4 3 5 7 8 7 5 5 4 4 4 3 2 3 2 1 1 1 2 4 4 4 5 5 5 4 5 7 9 11 13 14 15 16 16 14 13 12
3 3 5 2 2 2 3 4 5 5 6 6 7 7 7 6 6 5 5 6 5 5 4 2 2 2 1 1 1 1 2 3 3 3 3 2 2 3 4 8 10 12 12 14 15 15 13 9 5
1 4 3 2 2 3 5 5 3 4 8 7 9 11 8 7 7 7 6 6 6 5 5 3 3 2 1 1 1 1 1 2 2 3 3 3 2 2 3 3 5 6 7 6 8 8 5 5 4
1 3 3 3 3 4 5 5 5 8 11 9 10 10 9 9 9 8 8 7 6 6 5 4 4 3 2 2 1 2 2 2 2 3 4 4 2 2 3 2 3 3 3 4 4 4 6 6 6
1 4 5 6 8 7 7 8 8 10 12 11 10 9 9 9 9 9 8 7 6 6 6 5 5 4 3 2 2 2 3 3 4 4 4 5 4 3 3 3 3 3 4 5 5 5 6 7 6
3 5 7 7 6 4 7 10 7 10 7 8 9 9 9 8 9 9 7 7 7 7 6 5 5 5 4 3 3 3 3 3 4 4 5 5 5 5 4 4 3 3 4 5 5 6 6 6 6
2 5 6 4 4 3 5 10 8 9 6 9 10 10 10 9 8 9 9 9 8 8 6 6 5 5 4 4 4 3 3 4 4 4 5 6 5 6 5 4 4 4 4 5 5 5 5 5 5
2 3 5 5 3 3 2 11 9 6 6 10 10 10 9 9 9 9 8 8 7 7 6 6 5 4 5 4 4 3 3 4 4 4 5 6 6 7 5 5 4 4 4 4 5 5 5 5 5
3 3 6 9 3 2 2 12 12 7 7 10 10 9 9 9 9 8 8 7 7 6 5 5 4 5 6 5 4 4 3 4 4 4 5 6 7 7 6 5 5 5 5 5 5 4 5 6 6
4 5 6 8 6 5 8 14 15 9 6 8 8 8 8 8 9 8 7 6 6 5 5 5 5 5 5 5 3 3 3 3 4 4 5 7 6 8 6 5 6 6 5 5 5 6 4 5 6
4 6 10 11 7 7 11 15 16 9 6 7 6 6 7 9 8 7 5 4 4 4 5 5 5 5 4 4 4 4 4 4 4 5 6 8 7 8 7 6 6 6 6 7 7 6 6 4 5
5 7 9 9 5 7 10 13 11 5 5 5 6 6 7 8 9 8 5 3 4 5 5 5 6 5 4 5 5 4 4 4 5 5 6 7 8 8 8 8 7 7 6 7 7 6 5 4 5
5 6 7 9 9 4 6 8 4 3 3 4 4 4 6 8 8 8 7 5 5 5 5 5 6 5 5 5 4 3 2 2 3 4 5 7 8 9 9 9 8 8 8 8 8 9 8 6 5
6 5 6 7 5 5 3 6 6 4 6 5 5 6 7 8 7 7 7 7 6 6 5 6 7 6 5 5 5 6 5 5 5 5 6 6 8 9 9 9 9 8 7 9 9 9 7 8 7
6 5 5 4 2 3 2 2 9 4 5 6 6 6 7 7 7 8 8 8 6 5 5 6 6 5 5 6 7 7 6 6 4 5 6 7 7 9 9 9 8 8 8 9 10 9 9 7 7
4 4 1 2 2 2 2 1 8 3 4 5 6 7 8 8 8 8 8 7 6 5 5 5 5 5 4 6 7 8 8 6 6 7 7 6 6 6 8 8 8 8 8 9 10 10 11 9 8
5 5 6 8 5 5 2 2 9 6 4 5 7 9 9 8 8 8 9 8 7 7 6 5 5 6 5 6 7 7 8 8 8 8 7 7 6 6 8 8 8 8 8 9 9 9 10 10 10
2 3 3 2 5 7 4 6 9 5 4 5 5 7 8 9 8 8 9 8 8 7 6 6 6 7 6 6 6 6 7 6 6 7 7 8 7 7 8 9 9 9 9 9 9 8 9 9 10
1 1 3 3 2 5 7 8 11 4 5 5 6 7 8 9 9 9 9 9 9 8 8 7 7 7 7 6 6 6 6 6 6 6 6 6 6 6 8 9 9 9 9 9 9 8 9 9 10
2 4 3 3 1 5 7 6 6 7 7 7 8 9 10 10 10 10 10 10 10 9 8 7 6 7 6 5 5 5 6 6 6 6 6 6 6 6 7 8 9 9 9 10 9 8 9 10 9
2 2 2 2 2 2 6 9 6 7 6 7 9 9 10 11 11 11 11 11 10 9 8 7 7 6 5 5 5 5 6 6 5 5 6 5 5 5 7 7 8 8 9 10 9 9 10 11 10
3 4 5 3 3 3 5 12 5 4 5 5 9 10 11 11 10 10 11 10 10 9 8 7 7 6 5 4 4 4 4 3 3 4 5 5 5 5 5 6 7 8 8 9 10 10 10 11 12
Wind_Direction
351 4 58 58 59 55 241 243 229 265 267 279 268 232 191 192 179 199 298 335 347 353 345 221 194 187 182 178 174 167 163 162 161 160 158 155 154 153 152 151 150 147 144 140 137 134 131 128 125
346 29 56 66 105 205 252 236 230 241 288 319 328 344 12 314 331 345 330 321 343 0 3 349 157 184 188 185 179 173 170 168 168 166 164 162 159 158 157 156 154 151 146 142 139 135 133 131 128
8 52 82 91 162 199 225 247 255 289 305 351 347 357 10 310 341 326 302 302 343 9 0 346 14 118 178 185 182 178 175 174 173 173 171 169 166 164 163 161 158 154 149 144 141 138 137 135 133
62 50 59 109 222 228 236 291 314 326 344 5 1 327 315 314 343 303 303 317 355 5 358 348 9 172 153 175 175 176 178 179 179 177 176 175 173 170 167 165 161 157 153 149 146 145 142 140 138
57 78 89 230 243 251 260 297 333 354 338 342 358 310 284 284 330 336 337 344 351 347 351 354 11 20 185 187 181 172 174 181 183 181 181 180 176 173 170 167 165 162 159 156 153 152 146 144 144
59 74 135 231 247 268 287 309 339 343 319 327 338 301 269 274 349 345 346 338 337 335 337 342 355 6 358 221 181 175 178 181 185 187 187 182 177 176 173 170 170 168 164 160 158 157 152 150 148
102 115 189 222 254 268 303 336 349 301 300 290 285 288 284 302 326 334 336 334 331 336 339 330 323 331 327 307 202 175 174 182 183 185 188 185 178 177 178 174 174 174 170 164 162 160 158 156 153
111 108 181 232 238 251 308 336 305 277 271 280 253 258 277 302 320 328 330 337 323 321 328 322 321 318 274 213 242 187 176 178 184 184 181 179 183 183 180 179 177 176 174 170 166 164 162 160 156
79 93 215 223 220 249 324 328 305 281 268 279 251 245 269 299 313 326 324 321 311 298 297 308 316 311 310 241 241 204 180 177 177 177 171 173 178 183 182 183 182 179 176 175 171 167 163 159 157
89 175 225 223 206 259 295 284 291 305 292 281 281 280 288 294 301 297 299 294 289 285 285 274 274 295 296 272 208 230 196 178 174 172 165 160 162 172 175 181 184 183 179 177 176 169 160 145 144
135 208 250 277 267 277 282 277 264 264 273 261 279 291 297 295 293 286 274 268 266 265 273 275 254 247 253 259 221 231 221 173 169 167 161 153 150 161 163 172 181 183 177 174 172 164 150 142 143
260 254 259 275 290 282 269 275 269 235 249 269 278 282 283 285 282 277 276 271 271 263 266 274 250 233 236 227 221 216 198 183 175 179 171 160 158 165 169 169 174 175 171 164 156 158 152 149 150
269 280 277 274 283 272 269 260 263 257 264 280 287 286 277 273 275 270 268 265 268 265 262 272 264 230 223 222 207 237 204 192 184 179 181 176 171 175 176 177 175 178 171 166 165 161 160 158 158
276 283 287 284 281 279 278 273 261 264 281 297 302 294 285 275 273 273 272 268 268 269 260 253 272 240 216 220 207 214 210 189 184 185 188 188 182 178 181 182 180 185 179 174 172 169 167 167 164
296 308 305 282 279 281 300 289 244 264 300 303 301 295 289 282 276 268 261 258 256 260 258 248 259 257 229 225 221 210 206 192 192 193 191 192 191 184 181 184 187 186 179 172 169 163 163 165 164
4 358 314 291 294 286 331 281 272 282 303 296 298 298 292 285 275 268 264 261 256 254 253 250 260 269 243 230 232 210 200 198 194 197 194 198 198 193 184 185 193 185 177 177 172 169 169 171 170
26 337 292 297 278 291 260 270 281 292 291 289 293 297 295 296 289 275 266 257 254 250 250 252 253 259 241 227 224 213 197 205 197 201 200 201 203 199 191 189 192 183 180 185 181 175 177 175 174
301 294 283 283 288 286 268 268 283 291 280 279 289 300 304 303 292 281 270 258 254 255 252 250 249 252 240 215 206 209 197 206 201 203 209 204 205 202 196 193 190 186 184 189 186 174 183 177 169
250 259 273 273 279 287 268 275 286 296 292 287 299 302 303 299 299 300 282 281 264 257 253 251 249 253 241 203 191 207 204 209 212 213 211 209 207 204 198 196 190 190 192 191 185 172 174 176 162
251 265 274 283 284 287 284 281 279 284 274 277 291 301 305 307 317 316 310 292 273 265 260 254 247 245 241 218 201 208 208 210 215 213 214 211 210 207 203 198 195 195 193 189 188 175 169 175 173
265 244 263 286 313 296 310 303 299 315 296 290 286 287 302 305 303 310 306 291 276 268 259 261 258 254 244 223 205 212 208 217 214 216 219 213 214 212 209 204 200 200 196 194 190 185 177 178 189
279 249 264 287 319 310 10 311 300 317 315 309 307 312 314 309 305 306 307 297 279 267 263 259 258 253 246 219 202 202 210 225 229 223 224 219 217 214 210 205 202 202 203 197 193 191 187 177 183
262 288 281 279 248 302 324 259 287 318 305 305 310 314 314 316 313 308 304 293 284 272 269 267 265 260 250 225 212 207 216 224 227 228 225 223 221 216 211 206 205 206 206 200 195 192 190 189 187
295 327 347 52 65 315 272 221 288 285 271 303 315 320 319 322 321 314 309 305 305 297 283 275 267 265 253 235 221 213 218 222 224 229 228 226 222 217 213 210 207 210 207 200 197 198 195 195 193
24 30 10 1 1 279 310 261 261 268 269 278 298 311 317 320 319 320 320 319 313 306 292 280 268 268 260 243 233 223 222 217 221 227 228 230 223 220 215 214 211 210 211 204 197 199 199 195 194
348 96 114 279 282 300 319 263 265 273 285 288 296 305 317 320 319 320 319 318 312 303 296 287 278 269 262 248 243 240 236 225 226 227 228 227 225 223 215 213 214 213 211 207 199 201 204 198 198
96 114 158 157 285 287 281 287 298 291 308 317 323 323 320 320 323 323 322 321 316 311 302 289 283 281 270 254 249 247 239 230 232 233 235 232 229 227 218 215 215 212 210 206 201 204 206 198 199
149 143 94 103 339 298 295 279 272 297 304 318 324 324 323 326 326 326 325 323 318 314 308 301 288 281 278 265 259 257 246 232 229 228 231 236 234 228 223 218 215 211 212 207 204 203 205 201 200
116 123 120 129 173 224 292 278 240 256 281 300 310 315 317 320 320 322 322 322 319 319 318 315 306 297 288 273 264 264 253 240 234 227 226 230 236 230 227 220 216 212 213 206 203 207 202 203 200
170 174 150 163 247 219 259 275 274 259 280 299 310 316 318 318 318 320 322 325 327 322 318 319 319 309 298 287 276 270 257 246 236 232 229 227 229 232 234 225 219 214 214 208 202 206 205 201 199